Cadillac, MI

11:09 AM EDT on August 25, 2019 (GMT -0400)
Wexford County

Weather History for KCAD - June, 2019

Change the Weather History Date:

Friday, June 14, 2019

  Actual Average Record
Temperature  
Mean Temperature 52 °F -  
Max Temperature 64 °F 74 °F 89 °F (2001)
Min Temperature 40 °F 51 °F 29 °F (1978)
Degree Days  
Heating Degree Days 13    
Growing Degree Days 2 (Base 50)    
Moisture  
Dew Point 48 °F    
Average Humidity 83    
Maximum Humidity 95    
Minimum Humidity 45    
Precipitation  
Precipitation 0.00 in - - ()
Sea Level Pressure  
Sea Level Pressure 29.89 in    
Wind  
Wind Speed 5 mph (SW)    
Max Wind Speed 14 mph    
Max Gust Speed 21 mph    
Visibility 9 miles    
Events Rain    
Averages and records for this station are not official NWS values.
T = Trace of Precipitation, MM = Missing Value Source: NWS Daily Summary

Daily Weather History Graph

Daily Weather History Graph

Search for Another Location

Airport or City:

Astronomy

Jun. 14, 2019 Rise Set
Actual Time 5:57 AM EDT 9:26 PM EDT
Civil Twilight 5:20 AM EDT 10:03 PM EDT
Nautical Twilight 4:32 AM EDT 10:51 PM EDT
Astronomical Twilight 3:31 AM EDT 11:53 PM EDT
Moon 6:41 PM EDT (6/14) 4:22 AM EDT (6/14)
Length of Visible Light 16h 42m
Length of Day
15h 29m
Waxing Gibbous, 92% of the Moon is Illuminated
Jun 14
Waxing Gibbous
Jun 17
Full
Jun 25
Last Quarter
Jul 2
New
Jul 9
First Quarter

Hourly Weather History & Observations

Time (EDT) Temp. Windchill Dew Point Humidity Pressure Visibility Wind Dir Wind Speed Gust Speed Precip Events Conditions
12:17 AM 45.1 °F 42.8 °F 39.4 °F 80% 29.90 in 10.0 mi West 4.6 mph - N/A   Clear
12:35 AM 44.6 °F - 40.5 °F 85% 29.91 in 10.0 mi Calm Calm - N/A   Clear
12:55 AM 44.6 °F - 40.6 °F 86% 29.91 in 10.0 mi Calm Calm - N/A   Clear
12:56 AM 44.6 °F - 40.6 °F 86% 29.91 in 10.0 mi Calm Calm - N/A   Clear
1:15 AM 43.7 °F 42.1 °F 40.5 °F 88% 29.91 in 10.0 mi West 3.5 mph - N/A   Clear
1:38 AM 44.2 °F 42.7 °F 39.6 °F 84% 29.91 in 10.0 mi West 3.5 mph - N/A   Clear
1:56 AM 44.8 °F 43.3 °F 40.1 °F 84% 29.91 in 10.0 mi West 3.5 mph - N/A   Clear
2:15 AM 44.8 °F 42.4 °F 40.1 °F 84% 29.91 in 10.0 mi West 4.6 mph - N/A   Clear
2:16 AM 44.8 °F 43.3 °F 40.1 °F 84% 29.91 in 10.0 mi West 3.5 mph - N/A   Clear
2:35 AM 43.5 °F 41.9 °F 40.3 °F 88% 29.91 in 10.0 mi West 3.5 mph - N/A   Clear
2:59 AM 44.6 °F 43.1 °F 39.2 °F 81% 29.91 in 10.0 mi West 3.5 mph - N/A   Clear
3:17 AM 43.9 °F - 38.5 °F 81% 29.91 in 10.0 mi Calm Calm - N/A   Clear
3:35 AM 43.0 °F - 38.8 °F 85% 29.91 in 10.0 mi Calm Calm - N/A   Clear
3:55 AM 43.9 °F - 40.3 °F 87% 29.91 in 10.0 mi Calm Calm - N/A   Clear
3:56 AM 44.1 °F - 40.1 °F 86% 29.91 in 10.0 mi Calm Calm - N/A   Clear
4:15 AM 43.5 °F - 39.7 °F 87% 29.91 in 10.0 mi Calm Calm - N/A   Clear
4:37 AM 41.4 °F - 39.9 °F 95% 29.91 in 10.0 mi Calm Calm - N/A   Clear
4:56 AM 40.6 °F - 39.2 °F 95% 29.92 in 10.0 mi Calm Calm - N/A   Clear
5:15 AM 42.1 °F - 40.6 °F 95% 29.92 in 10.0 mi Calm Calm - N/A   Clear
5:16 AM 41.9 °F - 40.5 °F 95% 29.92 in 10.0 mi Calm Calm - N/A   Clear
5:35 AM 41.7 °F - 40.3 °F 95% 29.93 in 10.0 mi Calm Calm - N/A   Clear
5:59 AM 41.4 °F - 39.9 °F 95% 29.93 in 10.0 mi Calm Calm - N/A   Clear
6:17 AM 42.3 °F - 40.8 °F 95% 29.93 in 10.0 mi Calm Calm - N/A   Clear
6:35 AM 42.8 °F - 41.2 °F 94% 29.93 in 10.0 mi Calm Calm - N/A   Clear
6:36 AM 42.8 °F - 41.2 °F 94% 29.93 in 10.0 mi Calm Calm - N/A   Clear
6:55 AM 45.9 °F 44.6 °F 44.2 °F 94% 29.94 in 10.0 mi SSW 3.5 mph - N/A   Clear
7:15 AM 47.8 °F - 45.9 °F 93% 29.94 in 10.0 mi Calm Calm - N/A   Clear
7:38 AM 50.0 °F - 45.3 °F 84% 29.95 in 10.0 mi WSW 4.6 mph - N/A   Clear
7:55 AM 52.0 °F - 46.6 °F 82% 29.95 in 10.0 mi WSW 5.8 mph - N/A   Clear
8:15 AM 53.2 °F - 46.6 °F 78% 29.96 in 10.0 mi WSW 8.1 mph - N/A   Clear
8:35 AM 55.6 °F - 46.8 °F 72% 29.96 in 10.0 mi SW 5.8 mph - N/A   Clear
8:59 AM 58.5 °F - 46.9 °F 66% 29.96 in 10.0 mi SW 6.9 mph - N/A   Clear
9:17 AM 61.5 °F - 46.4 °F 58% 29.95 in 10.0 mi SW 9.2 mph - N/A   Clear
9:36 AM 63.7 °F - 45.5 °F 52% 29.95 in 10.0 mi SW 9.2 mph - N/A   Clear
9:55 AM 64.9 °F - 43.0 °F 45% 29.95 in 10.0 mi WSW 6.9 mph - N/A   Clear
10:15 AM 64.8 °F - 44.1 °F 47% 29.95 in 10.0 mi SW 10.4 mph - N/A   Clear
10:38 AM 64.2 °F - 44.2 °F 48% 29.94 in 10.0 mi WSW 11.5 mph - N/A   Clear
10:56 AM 63.5 °F - 44.6 °F 50% 29.94 in 10.0 mi SW 13.8 mph 17.3 mph N/A   Clear
11:15 AM 63.7 °F - 45.7 °F 52% 29.93 in 10.0 mi SW 13.8 mph 17.3 mph N/A   Clear
11:16 AM 63.7 °F - 45.5 °F 52% 29.93 in 10.0 mi SW 12.7 mph 17.3 mph N/A   Clear
11:35 AM 63.3 °F - 44.2 °F 50% 29.94 in 10.0 mi SW 13.8 mph 17.3 mph N/A   Scattered Clouds
11:59 AM 61.9 °F - 44.4 °F 53% 29.94 in 10.0 mi SW 11.5 mph 19.6 mph N/A   Mostly Cloudy
12:35 PM 61.7 °F - 46.6 °F 58% 29.94 in 10.0 mi SW 10.4 mph 16.1 mph N/A   Overcast
12:36 PM 61.7 °F - 46.8 °F 58% 29.94 in 10.0 mi SW 9.2 mph 16.1 mph N/A   Overcast
12:55 PM 60.3 °F - 47.1 °F 62% 29.94 in 10.0 mi SW 10.4 mph 18.4 mph N/A Rain Rain
12:56 PM 60.1 °F - 47.5 °F 63% 29.94 in 10.0 mi SW 11.5 mph 18.4 mph N/A Rain Rain
1:15 PM 60.3 °F - 47.1 °F 62% 29.93 in 10.0 mi SW 10.4 mph - N/A   Overcast
1:20 PM 60.8 °F - 46.2 °F 59% 29.93 in 10.0 mi SW 8.1 mph - N/A   Overcast
1:38 PM 60.1 °F - 48.4 °F 65% 29.93 in 10.0 mi SW 12.7 mph - N/A Rain Rain
1:56 PM 57.9 °F - 51.1 °F 78% 29.93 in 10.0 mi SW 9.2 mph 16.1 mph N/A Rain Rain
2:15 PM 56.5 °F - 53.1 °F 88% 29.92 in 7.0 mi SSW 9.2 mph - N/A Rain Rain
2:16 PM 56.5 °F - 53.2 °F 89% 29.92 in 10.0 mi SW 10.4 mph - N/A Rain Rain
2:35 PM 56.3 °F - 54.5 °F 94% 29.91 in 10.0 mi SSW 8.1 mph - N/A Rain Rain
2:59 PM 55.6 °F - 54.0 °F 94% 29.90 in 5.0 mi SSW 10.4 mph 18.4 mph N/A Rain Rain
3:17 PM 55.0 °F - 53.6 °F 95% 29.90 in 7.0 mi SSW 12.7 mph - N/A Rain Rain
3:35 PM 55.0 °F - 53.6 °F 95% 29.90 in 5.0 mi SSW 10.4 mph 17.3 mph N/A Rain Rain
3:36 PM 55.0 °F - 53.6 °F 95% 29.90 in 5.0 mi SSW 11.5 mph 17.3 mph N/A Rain Rain
3:55 PM 54.9 °F - 53.2 °F 94% 29.90 in 5.0 mi SSW 11.5 mph 17.3 mph N/A Rain Rain
4:15 PM 55.2 °F - 53.6 °F 94% 29.89 in 7.0 mi SSW 11.5 mph - N/A Rain Rain
4:38 PM 55.4 °F - 54.0 °F 95% 29.87 in 5.0 mi SSW 9.2 mph - N/A Rain Rain
4:56 PM 55.6 °F - 54.0 °F 94% 29.87 in 5.0 mi SSW 8.1 mph 18.4 mph N/A Rain Rain
5:15 PM 55.9 °F - 54.5 °F 95% 29.84 in 7.0 mi South 9.2 mph - N/A Rain Light Rain
5:35 PM 56.3 °F - 54.7 °F 94% 29.83 in 7.0 mi South 3.5 mph - N/A Rain Light Rain
5:59 PM 57.2 °F - 55.2 °F 93% 29.84 in 10.0 mi WSW 4.6 mph - N/A Rain Rain
6:17 PM 57.0 °F - 55.4 °F 94% 29.82 in 10.0 mi South 3.5 mph - N/A Rain Light Rain
6:35 PM 56.7 °F - 55.2 °F 95% 29.81 in 7.0 mi South 4.6 mph - N/A Rain Rain
6:55 PM 56.8 °F - 55.4 °F 95% 29.81 in 7.0 mi SSW 5.8 mph - N/A Rain Rain
7:15 PM 57.2 °F - 55.4 °F 94% 29.81 in 10.0 mi SSW 4.6 mph - N/A Rain Light Rain
7:20 PM 57.2 °F - 55.4 °F 94% 29.81 in 10.0 mi SW 5.8 mph - N/A Rain Light Rain
7:38 PM 57.2 °F - 55.4 °F 94% 29.80 in 10.0 mi South 8.1 mph - N/A Rain Rain
7:56 PM 57.2 °F - 55.6 °F 94% 29.80 in 10.0 mi SSW 8.1 mph - N/A Rain Light Rain
8:15 PM 57.7 °F - 56.3 °F 95% 29.78 in 10.0 mi SSW 6.9 mph - N/A Rain Light Rain
8:35 PM 58.1 °F - 56.5 °F 94% 29.78 in 10.0 mi SSW 13.8 mph 20.7 mph N/A Rain Light Rain
8:36 PM 58.1 °F - 56.5 °F 94% 29.78 in 10.0 mi SSW 13.8 mph 20.7 mph N/A Rain Rain
8:59 PM 58.8 °F - 56.3 °F 91% 29.79 in 10.0 mi SW 12.7 mph 18.4 mph N/A   Light Drizzle
9:17 PM 58.3 °F - 56.7 °F 94% 29.79 in 10.0 mi SW 10.4 mph - N/A Rain Light Rain
9:35 PM 58.3 °F - 56.5 °F 94% 29.78 in 10.0 mi SW 12.7 mph 18.4 mph N/A Rain Rain
9:55 PM 58.3 °F - 56.7 °F 94% 29.78 in 10.0 mi SSW 9.2 mph 16.1 mph N/A   Light Drizzle
9:56 PM 58.3 °F - 56.7 °F 94% 29.78 in 10.0 mi SSW 9.2 mph 16.1 mph N/A   Light Drizzle
10:15 PM 58.8 °F - 56.3 °F 91% 29.77 in 10.0 mi SSW 11.5 mph - N/A   Overcast
10:20 PM 58.6 °F - 56.3 °F 92% 29.77 in 10.0 mi SSW 10.4 mph - N/A   Overcast
10:38 PM 59.0 °F - 56.3 °F 91% 29.76 in 10.0 mi SSW 12.7 mph 19.6 mph N/A   Overcast